Voltar ao catálogo

FENGYUN 1C DEB

LostSSO
NORAD 38823·DEBRIS·🇨🇳 China

Lançado May 10, 1999 de Taiyuan Satellite Launch Center

Loading…

Próximas Passagens (próximas 24 horas)

TLE

ObsoletoSource: Space-Track

Época: Oct 30, 2024, 11:12 UTC

1 38823U 99025EVP 24304.46703957  .00012341  00000-0  71537-2 0  9999
2 38823  99.1660   9.2855 0100863  57.4926 303.5941 14.06386245821956

Acompanhe FENGYUN 1C DEB em tempo real com AllMySat

Download on the App Store